Powrót do katalogu

USA 181

AktywnyMilitariaLEO
NORAD 28537·PAYLOAD·🇺🇸 United States

Wystrzelony Feb 3, 2005 z Cape Canaveral Space Force Station

Loading…

Następne Przeloty (najbliższe 24 godziny)

TLE

NieaktualneSource: Mike McCants

Epoka: Sep 5, 2026, 00:45 UTC

1 28537U 05004A   26248.03181173 0.00000000  00000-0  00000-0 0    03
2 28537  63.3938 220.8267 0565010   5.1451 354.8549 13.41279753    09

Śledź USA 181 w czasie rzeczywistym z AllMySat

Download on the App Store